Back to catalog

STARLINK-11302

AliveCommunicationsVLEO
NORAD 61204·PAYLOAD·🇺🇸 United States

Launched Sep 20, 2024 from Vandenberg Space Force Base

Loading…

Next Passes (next 24 hours)

TLE

FreshSource: CelesTrak SupGP

Epoch: Sep 14, 2026, 21:18 UTC

1 61204C 24171E   26257.88798611 -.00068268  00000+0 -56215-3 0  2578
2 61204  53.1562 323.5449 0001218  70.5237 338.2465 15.69751856    18

Track STARLINK-11302 in real time with AllMySat

Download on the App Store